{"data":{"norad_id":62893,"intl_designator":"2025-024Q","name":"STARLINK-32892","alt_names":[],"object_type":"PAYLOAD","status":"ACTIVE","operator":null,"country":"US","launch_date":"2025-02-04","launch_site_code":"AFETR","launch_vehicle":null,"mission":null,"orbit_class":"UNKNOWN","rcs_meters":null,"size_class":null,"mass_kg":null,"dimensions":null,"purposes":["comms"],"wikipedia_slug":null,"has_3d_model":false,"image_url":null,"decayed_at":null,"tle_current":{"epoch":"2026-05-24T17:35:10.299840Z","epoch_age_seconds":94616,"freshness":"FRESH","line1":"1 62893U 25024Q   26144.73275810  .00008347  00000+0  31240-3 0  9995","line2":"2 62893  42.9980 256.0914 0001366 276.7146  83.3550 15.27590145 73898","mean_motion":15.27590145,"eccentricity":0.0001366,"inclination_deg":42.998,"raan_deg":256.0914,"arg_perigee_deg":276.7146,"mean_anomaly_deg":83.355,"bstar":0.0003124,"rev_number":7389,"period_min":94.266122671275,"perigee_km":482.08148455699,"apogee_km":483.95595229927,"semimajor_km":6861.1557184281,"source":"CELESTRAK","updated_at":"2026-05-25T13:38:19.791316Z"}}}